Location: George Washington National Forest Helicopter Landing Site
(38.6463°N, 79.0851°W)
Time: 23:46:00
(UTC-04:00)

Tiros 1 despin weight - Pass Details

Date: 22 August 2019
Orbit: 594 x 642 km, 48.2° (Epoch: 19 September)

Event Time Altitude Azimuth Distance (km) Brightness Sun altitude
Rises 02:48:04 0° 279° (W) 2,845 - -35.4°
Reaches altitude 10° 02:50:39 10° 292° (WNW) 1,950 - -35.2°
Maximum altitude 02:54:27 26° 350° (N) 1,198 - -34.8°
Exits shadow 02:56:11 21° 25° (NNE) 1,397 ? -34.7°
Drops below altitude 10° 02:58:18 10° 48° (NE) 1,977 ? -34.5°
Sets 03:00:56 0° 61° (ENE) 2,893 ? -34.2°
